Regional Weather Roundup
Issued by NWS

Home | Current Version | Previous Version | Graphics & Text | Print | Product List | Glossary On
Versions: 1 2 3 4 5 6 7 8 9 10 11 12 13 14 15 16 17 18 19 20 21 22 23 24 25 26 27 28 29 30 31 32 33 34 35 36 37 38 39 40 41 42 43 44 45 46 47 48 49 50
000
ASUS43 KIND 280059
RWRIN

WEATHER ROUNDUP FOR INDIANA
NATIONAL WEATHER SERVICE INDIANAPOLIS IN
900 PM EDT SAT MAY 27 2017

NOTE: "FAIR" INDICATES FEW OR NO CLOUDS BELOW 12,000 FEET WITH NO
SIGNIFICANT WEATHER AND/OR OBSTRUCTIONS TO VISIBILITY.

* - STATION DOES NOT REPORT WEATHER SUCH AS PRECIPITATION OR FOG.

+ - STATION NOT QUALITY CONTROLLED BY THE NATIONAL WEATHER SERVICE.
    USE DATA WITH CAUTION...ESPECIALLY DEWPOINT AND RELATIVE
    HUMIDITY OBSERVATIONS.

INZ001>003-010>013-019-020-280200-
NORTHWEST INDIANA

CITY           SKY/WX    TMP DP  RH WIND       PRES   REMARKS
GARY /AIRPORT/ MOCLDY    63  54  72 NE10      29.86F
MICHIGAN CITY+ CLOUDY    61  54  77 CALM      29.87S
MONTICELLO +   PTCLDY    67  62  83 E3        29.84F
RENSSELAER +   PTCLDY    68  61  77 E7        29.83F

$$

LMZ046-743>745-280200-
SOUTHERN LAKE MICHIGAN

STATION/POSITION TIME  TEMP    WIND        PRES    WAVE
                       AIR SEA DIR/SP/G            HT
                 (UTC) (F)     (DEG/KT/KT) (MB)    (FT)
BURNS HARBOR     0030   59      70/  7/  7 1011.9F
MICHIGAN CITY    0030   58      30/  2/  2   N/A
5NW MICH CITY    0050   56 57   40/  2/  4   N/A     1

$$

INZ004-005-014>016-021>024-280200-
NORTH CENTRAL INDIANA

CITY           SKY/WX    TMP DP  RH WIND       PRES   REMARKS
GOSHEN         CLEAR     68  61  78 E5        29.87R
SOUTH BEND     CLOUDY    67  62  84 N3        29.87R

$$

INZ006>009-017-018-025>027-280200-
NORTHEAST INDIANA

CITY           SKY/WX    TMP DP  RH WIND       PRES   REMARKS
ANGOLA *+      CLEAR     68  59  73 CALM      29.89R
FORT WAYNE     MOCLDY    68  62  81 NE6       29.88R
KENDALLVILLE + CLOUDY    69  62  78 CALM      29.89R

$$

INZ028-029-035-036-043>045-051>053-280200-
WEST CENTRAL INDIANA

CITY           SKY/WX    TMP DP  RH WIND       PRES   REMARKS
CRAWFORDSVL +  PTCLDY   -21 -24  87 E3        29.85F FOG
GREENCASTLE +  CLOUDY    70  61  73 N3        29.86R
LAFAYETTE      CLEAR     67  62  84 CALM      29.84F
TERRE HAUTE    MOCLDY    72  64  76 NE6       29.83F

$$

INZ030>032-037>040-046>048-054>057-064-065-280200-
CENTRAL INDIANA

CITY           SKY/WX    TMP DP  RH WIND       PRES   REMARKS
COLUMBUS       CLEAR     75  63  64 NW5       29.84R
GREENWOOD *+   MOCLDY    75  63  66 N3        29.86R
INDIANAPOLIS   CLOUDY    73  63  70 N8        29.85R
-EAGLE CREEK   CLOUDY    72  61  68 N5        29.85R
KOKOMO +       CLOUDY    69  63  81 NW6       29.88R
SHELBYVILLE    CLOUDY    75  64  68 N8        29.84R

$$

INZ033-034-041-042-049-050-058-059-280200-
EAST CENTRAL INDIANA

CITY           SKY/WX    TMP DP  RH WIND       PRES   REMARKS
MUNCIE         CLOUDY    72  63  73 N5        29.86R
RICHMOND +     CLOUDY    72  64  78 N3        29.86S

$$

INZ060-061-067>069-081>083-085>088-280200-
SOUTHWEST INDIANA

CITY           SKY/WX    TMP DP  RH WIND       PRES   REMARKS
EVANSVILLE     CLOUDY    75  60  59 W15       29.90R
HUNTINGBURG *+ CLOUDY    67  65  93 S8        29.85R

$$

INZ062-063-066-070>080-084-089>092-280200-
SOUTH CENTRAL AND SOUTHEAST INDIANA

CITY           SKY/WX    TMP DP  RH WIND       PRES   REMARKS
BLOOMINGTON    CLOUDY    73  65  75 W3        29.85R
MADISON *+     CLOUDY    73  70  88 SE8       29.87R
SEYMOUR +      CLOUDY    77  66  69 CALM      29.84R

$$





USA.gov is the U.S. government's official web portal to all federal, state and local government web resources and services.